NUSAT-1 (FRESCO) (41557 NORAD) Tracking and Keplerian Element Data

This shows tracking and keplerian element data for the satellite.

Feedback or suggestion? Click here.




ElementValue
Catalog41557
NameNUSAT-1 (FRESCO)
Epoch Orbit29693
Epoch Day269.19482928
Epoch Year2021
RAAN2.6022
Inclination97.3936
Eccentricity0.0011328
Argument of Perigee233.8889
Mean Anonmoly182.9175
Mean Motion15.29958998
Decay Rate3.613E-05
L11 41557U 16033B 21269.19482928 .00003613 00000-0 12703-3 0 9997
L22 41557 97.3936 2.6022 0011328 233.8889 182.9175 15.29958998296936

Live tracking and technical data element details for NUSAT-1 (FRESCO) (NORAD 41557). NUSAT-1 (FRESCO) can be tracked NOW for your location showing map with azimuth and elevation plus other details from your city location.

Track the satellite on the map from your city or location and see movement details for azimuth, elevation, latitude, longitude, range, height, and movement on the map or in text.







IsCatalogInMostPopularTable: catalog: 41557, numindb: 529
Update: records affected: 1



GetName: 41557 NUSAT-1 (FRESCO)

Hit Count: updated at: Mon, 27 Sep 2021 02:00:17 GMT